Northeast Philadelphia, PA

6:36 AM EDT on October 16, 2019 (GMT -0400)
Northeast Philadelphia

Weather History for KPNE - August, 2019

Change the Weather History Date:

Wednesday, August 14, 2019

  Actual Average Record
Temperature  
Mean Temperature 78 °F -  
Max Temperature 82 °F 83 °F 99 °F (2002)
Min Temperature 73 °F 65 °F 59 °F (1996)
Cooling Degree Days 12    
Growing Degree Days 28 (Base 50)    
Moisture  
Dew Point 71 °F    
Average Humidity 82    
Maximum Humidity 90    
Minimum Humidity 69    
Precipitation  
Precipitation 0.41 in - - ()
Sea Level Pressure  
Sea Level Pressure 29.84 in    
Wind  
Wind Speed 2 mph (East)    
Max Wind Speed 12 mph    
Max Gust Speed -    
Visibility 6 miles    
Events Rain , Thunderstorm    
Averages and records for this station are not official NWS values.
T = Trace of Precipitation, MM = Missing Value Source: NWS Daily Summary

Daily Weather History Graph

Daily Weather History Graph

Search for Another Location

Airport or City:

Astronomy

Aug. 14, 2019 Rise Set
Actual Time 6:10 AM EDT 7:58 PM EDT
Civil Twilight 5:41 AM EDT 8:27 PM EDT
Nautical Twilight 5:05 AM EDT 9:02 PM EDT
Astronomical Twilight 4:27 AM EDT 9:40 PM EDT
Moon 7:51 PM EDT (8/14) 5:05 AM EDT (8/14)
Length of Visible Light 14h 46m
Length of Day
13h 48m
Waxing Gibbous, 99% of the Moon is Illuminated
Aug 14
Waxing Gibbous
Aug 15
Full
Aug 23
Last Quarter
Aug 30
New
Sep 5
First Quarter

Hourly Weather History & Observations

Time (EDT) Temp. Heat Index Dew Point Humidity Pressure Visibility Wind Dir Wind Speed Gust Speed Precip Events Conditions
12:20 AM 75.9 °F - 72.0 °F 87% 29.79 in 2.0 mi Calm Calm - N/A   Partly Cloudy
12:29 AM 75.0 °F - 72.0 °F 90% 29.79 in 0.8 mi Calm Calm - N/A   Scattered Clouds
12:41 AM 75.0 °F - 72.0 °F 90% 29.79 in 1.8 mi Calm Calm - N/A   Mostly Cloudy
12:54 AM 75.0 °F - 72.0 °F 90% 29.79 in 2.0 mi Calm Calm - N/A   Overcast
1:01 AM 75.0 °F - 72.0 °F 90% 29.79 in 1.2 mi Calm Calm - N/A   Overcast
1:13 AM 75.0 °F - 72.0 °F 90% 29.79 in 2.5 mi Calm Calm - N/A   Overcast
1:39 AM 75.9 °F - 72.0 °F 87% 29.78 in 3.0 mi Calm Calm - N/A   Overcast
1:54 AM 75.9 °F - 72.0 °F 87% 29.78 in 2.0 mi Calm Calm - N/A   Overcast
2:24 AM 75.9 °F - 72.0 °F 87% 29.78 in 4.0 mi Calm Calm - N/A   Overcast
2:54 AM 75.9 °F - 72.0 °F 87% 29.77 in 3.0 mi NE 4.6 mph - N/A   Overcast
3:54 AM 75.0 °F - 71.1 °F 87% 29.78 in 5.0 mi Calm Calm - 0.01 in   Overcast
4:23 AM 73.9 °F - 70.0 °F 87% 29.79 in 2.0 mi North 5.8 mph - 0.08 in Rain Heavy Rain
4:34 AM 73.9 °F - 69.1 °F 85% 29.78 in 4.0 mi NNE 3.5 mph - 0.10 in Rain Light Rain
4:54 AM 73.9 °F - 70.0 °F 87% 29.78 in 4.0 mi NE 3.5 mph - 0.11 in Rain Light Rain
5:54 AM 73.9 °F - 69.1 °F 85% 29.78 in 10.0 mi Calm Calm - 0.00 in   Overcast
6:54 AM 75.0 °F - 70.0 °F 84% 29.80 in 6.0 mi Calm Calm - 0.00 in   Haze
7:54 AM 75.9 °F - 70.0 °F 82% 29.81 in 7.0 mi Calm Calm - N/A   Overcast
8:54 AM 77.0 °F - 70.0 °F 79% 29.83 in 7.0 mi Calm Calm - N/A   Overcast
9:54 AM 75.0 °F - 71.1 °F 87% 29.83 in 2.0 mi NNE 3.5 mph - 0.11 in Rain Heavy Rain
10:54 AM 79.0 °F - 71.1 °F 77% 29.83 in 2.0 mi NE 5.8 mph - 0.01 in   Haze
11:01 AM 79.0 °F - 71.1 °F 77% 29.83 in 9.0 mi NE 6.9 mph - N/A   Overcast
11:54 AM 77.0 °F - 70.0 °F 79% 29.83 in 6.0 mi ENE 6.9 mph - 0.00 in Rain Light Rain
12:54 PM 80.1 °F 83.6 °F 71.1 °F 74% 29.83 in 8.0 mi Calm Calm - 0.00 in   Overcast
1:19 PM 80.1 °F 83.6 °F 71.1 °F 74% 29.84 in 8.0 mi East 3.5 mph - N/A   Overcast
1:32 PM 80.1 °F 83.8 °F 72.0 °F 76% 29.84 in 9.0 mi ENE 4.6 mph - N/A   Overcast
1:54 PM 80.1 °F 83.2 °F 70.0 °F 71% 29.83 in 10.0 mi East 6.9 mph - N/A   Overcast
2:54 PM 80.1 °F 83.6 °F 71.1 °F 74% 29.84 in 8.0 mi NE 11.5 mph - N/A   Overcast
3:54 PM 81.0 °F 85.2 °F 72.0 °F 74% 29.84 in 9.0 mi ESE 6.9 mph - N/A   Overcast
4:37 PM 81.0 °F 84.9 °F 71.1 °F 72% 29.86 in 10.0 mi East 8.1 mph - N/A   Mostly Cloudy
4:46 PM 81.0 °F 84.9 °F 71.1 °F 72% 29.86 in 10.0 mi East 6.9 mph - N/A   Mostly Cloudy
4:54 PM 82.0 °F 86.3 °F 71.1 °F 69% 29.85 in 10.0 mi Variable 3.5 mph - N/A   Mostly Cloudy
5:54 PM 82.0 °F 86.3 °F 71.1 °F 69% 29.85 in 10.0 mi SE 8.1 mph - N/A   Scattered Clouds
6:54 PM 80.1 °F 83.6 °F 71.1 °F 74% 29.86 in 10.0 mi SE 5.8 mph - N/A   Partly Cloudy
7:54 PM 79.0 °F - 71.1 °F 77% 29.86 in 9.0 mi East 8.1 mph - N/A   Overcast
8:18 PM 78.1 °F - 70.0 °F 76% 29.87 in 10.0 mi ESE 10.4 mph - N/A   Overcast
8:31 PM 78.1 °F - 70.0 °F 76% 29.88 in 10.0 mi ESE 6.9 mph - N/A   Overcast
8:36 PM 78.1 °F - 70.0 °F 76% 29.88 in 9.0 mi East 4.6 mph - N/A Thunderstorm Overcast
8:47 PM 77.0 °F - 71.1 °F 82% 29.89 in 8.0 mi ESE 6.9 mph - 0.00 in Rain , Thunderstorm Light Rain
8:54 PM 77.0 °F - 71.1 °F 82% 29.90 in 8.0 mi East 4.6 mph - 0.00 in Rain , Thunderstorm Light Rain
9:01 PM 77.0 °F - 71.1 °F 82% 29.90 in 5.0 mi East 5.8 mph - 0.02 in Rain Heavy Rain
9:09 PM 77.0 °F - 72.0 °F 84% 29.91 in 4.0 mi Calm Calm - 0.04 in Rain , Thunderstorm Rain
9:42 PM 75.9 °F - 72.0 °F 87% 29.93 in 3.0 mi Calm Calm - 0.08 in Rain Light Rain
9:54 PM 75.9 °F - 72.0 °F 87% 29.92 in 4.0 mi Calm Calm - 0.09 in Rain Light Rain
10:04 PM 75.9 °F - 72.0 °F 87% 29.92 in 2.5 mi Calm Calm - 0.03 in Rain Rain
10:14 PM 75.9 °F - 72.0 °F 87% 29.92 in 4.0 mi Calm Calm - 0.05 in Rain Light Rain
10:27 PM 75.9 °F - 72.0 °F 87% 29.93 in 4.0 mi Calm Calm - 0.07 in Rain Light Rain
10:54 PM 75.9 °F - 72.0 °F 87% 29.93 in 5.0 mi Calm Calm - 0.08 in Rain Light Rain
11:54 PM 75.0 °F - 71.1 °F 87% 29.94 in 4.0 mi East 3.5 mph - 0.00 in   Scattered Clouds